LiveATC.Net - Listen to live air traffic control over the Internet!


ICAO: KVCB  IATA: VCB   Airport: Nut Tree Airport
City: Vacaville   State/Province: California
Country: United States   Continent: North America
KVCB METAR Weather: KVCB 220453Z AUTO 00000KT 10SM CLR 25/16 A2981 RMK AO2 SLP094 T02500161 TSNO
KVCB Flight Activity (FlightAware)
KVCB Webcam:  (Airport Webcams) 
KVCB Airport Info   (iFlightPlanner)
KVCB VFR Sectional Chart   (iFlightPlanner) 
KVCB IFR Low Chart   (iFlightPlanner) 

KVCB CTAF/App
Feed Status: DOWN
Last heard on: 2019-08-13 15:40:06 (8 days 14 hours 12 minutes ago)
KVCB CTAF/App Audio Archives
FacilityFrequency
Nut Tree CTAF/UNICOM123.050
Travis Approach128.400

NOTICE

Unauthorized use prohibited. See LiveATC.net Terms of Service


Airport/ARTCC Code
Frequency Search
(e.g., 124.400, 128.75)
Site-wide search
 


Browse LiveATC Feeds
Top 50 LiveATC Feeds
LiveATC Feed Map
Bad Weather Areas

LiveATC FAQ
Offer LiveATC feed
Contact LiveATC.net
Press Inquiries

LiveATC on iPhone
LiveATC on Android

Windows Phone
Windows 8/10

LiveATC Mobile
(Mobile browser)

ATC Audio Archives
Interesting Recordings

LiveATC Forums


Home Page
About LiveATC.net
Make a Donation
Terms of Use
Privacy Policy

Canadian Air Freqs

AIRMETs/SIGMETs

FAA Airport Status
Nat'l Airspace Status
Arrival Demand Charts


Server Software By:
Icecast.org
Liquidsoap